Regional Weather Roundup
Issued by NWS

Home | Current Version | Previous Version | Text Only | Print | Product List | Glossary Off
Versions: 1 2 3 4 5 6 7 8 9 10 11 12 13 14 15 16 17 18 19 20 21 22 23 24 25 26 27 28 29 30 31 32 33 34 35 36 37 38 39 40 41 42 43 44 45 46 47 48 49 50

000
ASUS44 KMEG 171910
RWRTN
TENNESSEE HOURLY STATE WEATHER ROUNDUP
NATIONAL WEATHER SERVICE MEMPHIS TN
200 PM CDT THU APR 17 2014

TNZ002-004-019-021-049-052-054-088>092-172000-
WEST TENNESSEE

CITY           SKY/WX    TMP DP  RH WIND       PRES   REMARKS
MEMPHIS INTL   PTSUNNY   69  41  36 S10       30.24F
NWS MEMPHIS      N/A     68 N/A N/A MISG        N/A
JACKSON        SUNNY     67  39  35 SE7       30.26F
DYERSBURG      MOSUNNY   68  41  37 SW5       30.27F
UNION CITY     MOSUNNY   64  43  45 S9        30.26F
LEXINGTON      SUNNY     66  34  30 E7        30.26F
SAVANNAH       SUNNY     66  38  35 SW5       30.26F
$$

TNZ008-025-027-028-033-062-065-066-172000-
NORTH MIDDLE TENNESSEE

CITY           SKY/WX    TMP DP  RH WIND       PRES   REMARKS
NASHVILLE      PTSUNNY   66  33  29 S8        30.31F
DICKSON        SUNNY     64  32  29 S7        30.28F
PORTLAND       SUNNY     64  34  32 VRB7      30.30F
CLARKSVILLE    SUNNY     66  39  37 VRB6      30.28F
SMYRNA         SUNNY     65  35  32 S8        30.32F
MURFREESBORO   SUNNY     64  32  30 S7        30.31F
COOKEVILLE     SUNNY     64  34  32 S6        30.32F
GALLATIN       SUNNY     64  33  31 CALM      30.32F
CROSSVILLE     SUNNY     59  25  27 S7        30.35F
$$

TNZ061-075-076-078-094-096-097-172000-
SOUTH MIDDLE TENNESSEE

CITY           SKY/WX    TMP DP  RH WIND       PRES   REMARKS
LEWISBURG      SUNNY     64  34  32 VRB3      30.30F
FAYETTEVILLE   SUNNY     62  37  39 S5        30.30F
TULLAHOMA      SUNNY     64  34  32 VRB6      30.31F
WINCHESTER     SUNNY     64  37  36 VRB6      30.30F
MCMINNVILLE    SUNNY     64  34  32 VRB5      30.31F
COLUMBIA       SUNNY     64  45  48 E9        30.28F
SHELBYVILLE    SUNNY     64  36  34 SE7       30.32F
$$

TNZ017-018-042-046-047-172000-
NORTHEAST TENNESSEE

CITY           SKY/WX    TMP DP  RH WIND       PRES   REMARKS
TRI CITIES     SUNNY     67  19  16 S3        30.36F
ELIZABETHTON   CLEAR     64  27  24 CALM      30.35F
$$

TNZ012-013-036-069-073-074-172000-
CENTRAL EAST TENNESSEE

CITY           SKY/WX    TMP DP  RH WIND       PRES   REMARKS
KNOXVILLE      MOSUNNY   63  31  30 VRB3      30.35F
OAK RIDGE      SUNNY     66  27  23 CALM      30.36F
$$

TNZ083-085-099-172000-
SOUTHEAST TENNESSEE

CITY           SKY/WX    TMP DP  RH WIND       PRES   REMARKS
CHATTANOOGA    PTSUNNY   65  34  31 VRB5      30.34F
$$

SKY/WX REPORTED AS FAIR MEANS FEW OR NO CLOUDS BELOW
12 THOUSAND FEET.




USA.gov is the U.S. government's official web portal to all federal, state and local government web resources and services.